CW7520 Weather Reports


Display with metric or nautical units.
time (UTC)temp
F
wind
direction
speed
MPH
gust
MPH
rain 1hr
in
rain 24hr
in
rain mn
in
humidity
%
barometer
mb
20260905172914 55 0 0.0 0.0 0.00 0.06 0.00 81 1015.6
20260905171805 55 0 0.0 0.0 0.00 0.06 0.00 81 1015.4
20260905170904 55 0 0.0 0.0 0.00 0.06 0.00 81 1015.2
20260905170004 55 0 0.0 0.0 0.00 0.06 0.00 81 1015.1
20260905165405 55 0 0.0 0.0 0.00 0.06 0.00 81 1015.0
20260905164716 55 0 0.0 0.0 0.00 0.06 0.00 81 1015.0
20260905163813 55 0 0.0 0.0 0.00 0.06 0.00 81 1014.8
20260905162703 55 0 0.0 0.0 0.00 0.06 0.00 80 1014.7
20260905161804 55 0 0.0 0.0 0.00 0.06 0.00 80 1014.7
20260905160903 55 0 0.0 0.0 0.00 0.07 0.00 81 1014.7
20260905160009 55 0 0.0 0.0 0.00 0.08 0.00 81 1014.6
20260905155614 55 0 0.0 0.0 0.00 0.08 0.00 81 1014.5
20260905154503 55 0 0.0 0.0 0.00 0.08 0.00 80 1014.2
20260905153605 55 0 0.0 0.0 0.00 0.08 0.00 80 1014.2
20260905152705 55 0 0.0 0.0 0.00 0.08 0.00 81 1014.0
20260905151803 55 0 0.0 0.0 0.00 0.08 0.00 81 1013.9
20260905150904 55 0 0.0 0.0 0.00 0.08 0.00 81 1013.7
20260905150004 55 0 0.0 0.0 0.00 0.08 0.00 81 1013.4
20260905145403 55 0 0.0 0.0 0.00 0.08 0.00 81 1013.4
20260905144505 55 0 0.0 0.0 0.00 0.08 0.00 81 1013.1
20260905143605 54 0 0.0 0.0 0.00 0.08 0.00 82 1012.9
20260905142705 54 0 0.0 0.0 0.00 0.08 0.00 82 1012.7
20260905141804 54 0 0.0 0.0 0.00 0.08 0.00 82 1012.5
20260905140903 54 0 0.0 0.0 0.00 0.08 0.00 81 1012.5
20260905140009 54 0 0.0 0.0 0.00 0.08 0.00 81 1012.3
20260905135404 55 0 0.0 0.0 0.00 0.08 0.08 81 1012.3
20260905134505 55 0 0.0 0.0 0.00 0.08 0.08 81 1012.1
20260905133604 55 0 0.0 0.0 0.00 0.08 0.08 80 1011.9
20260905132704 55 0 0.0 0.0 0.00 0.08 0.08 79 1011.8
20260905132015 55 0 0.0 0.0 0.00 0.08 0.08 79 1011.7
20260905130904 56 0 0.0 0.0 0.00 0.08 0.08 77 1011.5
20260905130008 56 0 0.0 0.0 0.00 0.08 0.08 75 1011.4
20260905125410 56 0 0.0 0.0 0.00 0.08 0.08 75 1011.4
20260905124503 56 0 0.0 0.0 0.00 0.08 0.08 73 1011.2
20260905123608 56 0 0.0 0.0 0.00 0.08 0.08 73 1011.0
20260905122919 56 0 0.0 0.0 0.00 0.08 0.08 72 1010.9
20260905122018 56 0 0.0 0.0 0.00 0.08 0.08 72 1010.9
20260905120908 56 0 0.0 0.0 0.00 0.09 0.08 71 1010.7
20260905120004 56 0 0.0 0.0 0.00 0.09 0.08 71 1010.7
20260905115409 56 0 0.0 0.0 0.00 0.09 0.08 71 1010.5
20260905114508 56 0 0.0 0.0 0.00 0.09 0.08 71 1010.4
20260905113603 56 0 0.0 0.0 0.00 0.09 0.08 71 1010.3
20260905112703 56 0 0.0 0.0 0.00 0.09 0.08 71 1010.3
20260905111804 56 0 0.0 0.0 0.00 0.09 0.08 71 1010.2
20260905110910 56 0 0.0 0.0 0.00 0.09 0.08 70 1010.0
20260905110004 56 0 0.0 0.0 0.00 0.09 0.08 69 1009.7
20260905105409 56 0 0.0 0.0 0.00 0.09 0.08 69 1009.6
20260905104503 56 0 0.0 0.0 0.00 0.09 0.08 69 1009.4
20260905103609 56 0 0.0 0.0 0.00 0.09 0.08 69 1009.3
20260905102704 56 0 0.0 0.0 0.00 0.09 0.08 69 1009.2
20260905101809 56 0 0.0 0.0 0.00 0.09 0.08 69 1009.0
20260905100913 56 0 0.0 0.0 0.00 0.10 0.08 69 1008.8
20260905100004 56 0 0.0 0.0 0.00 0.11 0.08 69 1008.6
20260905095403 56 0 0.0 0.0 0.00 0.11 0.08 69 1008.5
20260905094508 56 0 0.0 0.0 0.00 0.11 0.08 69 1008.4
20260905093603 56 0 0.0 0.0 0.00 0.11 0.08 70 1008.1
20260905092708 56 0 0.0 0.0 0.00 0.11 0.08 70 1007.7
20260905091808 56 0 0.0 0.0 0.00 0.11 0.08 70 1007.5
20260905090909 56 0 0.0 0.0 0.00 0.11 0.08 72 1007.4
20260905090004 55 0 0.0 0.0 0.00 0.11 0.08 74 1007.3
20260905085408 55 0 0.0 0.0 0.00 0.11 0.08 76 1007.2
20260905084508 55 0 0.0 0.0 0.00 0.11 0.08 76 1007.1
20260905083603 55 0 0.0 0.0 0.00 0.11 0.08 76 1006.8
20260905082913 56 0 0.0 0.0 0.00 0.11 0.08 76 1006.6
20260905081808 56 0 0.0 0.0 0.00 0.11 0.08 75 1006.6
20260905081118 56 0 0.0 0.0 0.00 0.11 0.08 75 1006.6
20260905080013 56 0 0.0 0.0 0.02 0.11 0.08 74 1006.2
20260905075404 57 0 0.0 0.0 0.02 0.11 0.08 73 1006.1
20260905074513 58 0 0.0 0.0 0.02 0.11 0.08 73 1006.1
20260905073613 59 0 0.0 0.0 0.02 0.11 0.08 73 1006.2
20260905072703 60 0 0.0 0.0 0.02 0.11 0.08 74 1005.8
20260905072018 60 0 0.0 0.0 0.02 0.11 0.08 72 1005.4
20260905070903 61 0 0.0 0.0 0.02 0.11 0.08 70 1005.0
20260905070004 62 0 0.0 0.0 0.00 0.09 0.06 65 1004.7
20260905065413 62 0 0.0 0.0 0.00 0.09 0.06 62 1004.5
20260905064504 62 0 0.0 0.0 0.00 0.09 0.06 62 1004.2
20260905063604 64 0 0.0 0.0 0.00 0.09 0.06 62 1004.4
20260905062708 65 0 0.0 0.0 0.00 0.09 0.06 55 1004.2
20260905061808 66 0 0.0 0.0 0.00 0.09 0.06 51 1004.1
20260905060908 66 0 0.0 0.0 0.00 0.09 0.06 48 1004.1
20260905060003 66 0 0.0 0.0 0.00 0.09 0.06 50 1004.0
20260905055408 66 0 0.0 0.0 0.00 0.09 0.06 49 1004.0
20260905054508 66 0 0.0 0.0 0.00 0.09 0.06 46 1004.1
20260905053608 67 0 0.0 0.0 0.00 0.09 0.06 46 1003.8
20260905052713 67 0 0.0 0.0 0.00 0.09 0.06 46 1003.9
20260905052019 68 0 0.0 0.0 0.00 0.09 0.06 45 1003.7
20260905050908 68 0 0.0 0.0 0.00 0.09 0.06 47 1003.4
20260905050008 68 0 0.0 0.0 0.00 0.09 0.06 47 1003.3
20260905045614 68 0 0.0 0.0 0.00 0.09 0.06 46 1003.3
20260905044504 68 0 0.0 0.0 0.00 0.09 0.06 44 1003.4
20260905043608 68 0 0.0 0.0 0.00 0.09 0.06 45 1003.3
20260905042709 67 0 0.0 0.0 0.00 0.09 0.06 46 1003.3
20260905041803 67 0 0.0 0.0 0.00 0.09 0.06 47 1003.1
20260905040905 67 0 0.0 0.0 0.00 0.09 0.06 50 1003.2
20260905040008 67 0 0.0 0.0 0.00 0.09 0.06 49 1003.1
20260905035615 67 0 0.0 0.0 0.00 0.09 0.06 49 1003.2
20260905034510 68 0 0.0 0.0 0.00 0.09 0.06 49 1003.1
20260905033603 68 0 0.0 0.0 0.00 0.09 0.06 47 1003.0
20260905032704 69 0 0.0 0.0 0.00 0.09 0.06 46 1003.0
20260905031808 69 0 0.0 0.0 0.00 0.09 0.06 45 1003.2
20260905030904 70 0 0.0 0.0 0.00 0.09 0.06 44 1003.3
20260905030004 70 0 0.0 0.0 0.00 0.09 0.06 47 1003.5
20260905025409 70 0 0.0 0.0 0.00 0.09 0.06 50 1003.5
20260905024503 70 0 0.0 0.0 0.00 0.09 0.06 49 1003.5
20260905023610 71 0 0.0 0.0 0.00 0.09 0.06 51 1003.3
20260905022704 70 0 0.0 0.0 0.00 0.09 0.06 49 1003.6
20260905021806 70 0 0.0 0.0 0.00 0.09 0.06 50 1003.5
20260905020910 69 0 0.0 0.0 0.00 0.09 0.06 54 1003.6
20260905020008 68 0 0.0 0.0 0.00 0.09 0.06 55 1003.8
20260905015408 68 0 0.0 0.0 0.00 0.09 0.06 57 1004.0
20260905014503 67 0 0.0 0.0 0.00 0.09 0.06 58 1003.8
20260905013603 67 0 0.0 0.0 0.00 0.09 0.06 61 1004.0
20260905012710 66 0 0.0 0.0 0.00 0.09 0.06 66 1004.1
20260905011805 65 0 0.0 0.0 0.00 0.09 0.06 70 1004.2
20260905010905 64 0 0.0 0.0 0.00 0.09 0.06 72 1004.2
20260905010008 63 0 0.0 0.0 0.00 0.09 0.06 74 1004.3
20260905005624 63 0 0.0 0.0 0.00 0.09 0.06 75 1004.3
20260905004508 62 0 0.0 0.0 0.00 0.09 0.06 77 1004.4
20260905003603 62 0 0.0 0.0 0.00 0.09 0.06 78 1004.4
20260905002914 61 0 0.0 0.0 0.00 0.09 0.06 79 1004.4
20260905001813 61 0 0.0 0.0 0.00 0.09 0.06 79 1004.3
20260905001115 61 0 0.0 0.0 0.00 0.09 0.06 79 1004.4
20260905000214 61 0 0.0 0.0 0.00 0.09 0.06 78 1004.8
20260904235404 60 0 0.0 0.0 0.00 0.09 0.06 78 1004.7
20260904234505 60 0 0.0 0.0 0.00 0.09 0.06 78 1004.6
20260904233603 60 0 0.0 0.0 0.00 0.09 0.06 80 1004.5
20260904232705 59 0 0.0 0.0 0.00 0.09 0.06 80 1004.4
20260904232015 59 0 0.0 0.0 0.00 0.09 0.06 81 1004.6
20260904230903 59 0 0.0 0.0 0.00 0.09 0.06 82 1004.7
20260904230012 59 0 0.0 0.0 0.00 0.09 0.06 83 1004.4
20260904225619 59 0 0.0 0.0 0.00 0.09 0.06 82 1004.5
20260904224509 58 0 0.0 0.0 0.00 0.09 0.06 83 1004.5
20260904223608 58 0 0.0 0.0 0.01 0.09 0.06 83 1004.4
20260904222703 58 0 0.0 0.0 0.01 0.09 0.06 84 1004.9
20260904221804 58 0 0.0 0.0 0.01 0.09 0.06 85 1004.8
20260904221114 58 0 0.0 0.0 0.02 0.09 0.06 85 1004.6
20260904220008 57 0 0.0 0.0 0.02 0.09 0.06 86 1004.6
20260904215403 57 0 0.0 0.0 0.03 0.09 0.06 86 1004.8
20260904214719 57 0 0.0 0.0 0.03 0.09 0.06 86 1004.5
20260904213605 57 0 0.0 0.0 0.02 0.09 0.06 85 1004.2
20260904212705 57 0 0.0 0.0 0.03 0.09 0.06 84 1004.3
20260904211805 58 0 0.0 0.0 0.03 0.09 0.06 84 1004.9
20260904210905 58 0 0.0 0.0 0.02 0.08 0.05 83 1005.6
20260904210008 58 0 0.0 0.0 0.02 0.07 0.04 82 1006.2
20260904205405 59 0 0.0 0.0 0.01 0.06 0.03 81 1006.5
20260904204505 59 0 0.0 0.0 0.01 0.06 0.03 80 1006.4
20260904203816 59 0 0.0 0.0 0.01 0.06 0.03 79 1006.3
20260904202705 59 0 0.0 0.0 0.00 0.06 0.02 78 1006.6
20260904201805 59 0 0.0 0.0 0.00 0.06 0.02 78 1006.3
20260904200903 59 0 0.0 0.0 0.00 0.06 0.02 79 1006.4
20260904200219 59 0 0.0 0.0 0.00 0.06 0.02 79 1006.2
20260904195403 59 0 0.0 0.0 0.00 0.06 0.02 79 1006.2
20260904194504 59 0 0.0 0.0 0.00 0.06 0.02 79 1006.2
20260904193605 59 0 0.0 0.0 0.00 0.06 0.02 80 1006.2
20260904192704 59 0 0.0 0.0 0.01 0.06 0.02 80 1006.5
20260904192016 59 0 0.0 0.0 0.01 0.06 0.02 80 1006.6
20260904190904 59 0 0.0 0.0 0.01 0.06 0.02 80 1006.7
20260904190004 59 0 0.0 0.0 0.01 0.06 0.02 79 1007.0
20260904185403 59 0 0.0 0.0 0.01 0.06 0.02 80 1006.9
20260904184504 59 0 0.0 0.0 0.01 0.06 0.02 80 1007.0
20260904183605 59 0 0.0 0.0 0.01 0.06 0.02 80 1007.1
20260904182705 59 0 0.0 0.0 0.00 0.05 0.02 80 1007.4
20260904181805 59 0 0.0 0.0 0.00 0.05 0.02 80 1007.2
20260904180904 59 0 0.0 0.0 0.00 0.05 0.02 81 1006.9
20260904180005 59 0 0.0 0.0 0.00 0.05 0.02 81 1006.6
20260904175405 59 0 0.0 0.0 0.00 0.05 0.02 81 1006.6
20260904174505 59 0 0.0 0.0 0.00 0.05 0.02 81 1006.8
20260904173604 59 0 0.0 0.0 0.00 0.05 0.02 81 1006.8